Theta_e
320 329 332 332 335 338 344 344 347 348 345 343 343 343 347 347 352 351 341 339 332 345 343 336 336 339 339 331 330 330 330 330 329 328 328 327 329 331 332 333 333 328 319 318 318 319 322 327 328
324 325 331 323 330 337 340 341 347 344 341 343 344 344 347 346 344 345 343 342 336 344 341 337 336 339 340 335 331 331 331 331 330 329 328 329 330 332 335 335 332 322 318 319 319 322 326 327 328
328 326 326 326 326 331 332 341 342 342 341 339 343 341 343 345 344 342 342 343 344 345 341 337 336 339 341 339 331 332 331 331 330 329 328 330 331 334 336 333 325 319 318 319 320 323 325 325 326
328 322 317 328 330 327 331 329 338 342 341 341 341 347 341 340 342 342 346 345 346 348 342 339 337 338 341 340 332 332 331 331 329 328 328 330 332 336 335 329 321 320 320 320 320 322 322 323 325
323 316 322 324 325 325 325 330 339 341 343 343 343 345 342 342 340 345 346 344 343 346 342 341 339 338 339 340 332 332 331 330 329 329 329 330 332 335 335 327 321 319 320 321 321 321 322 324 326
318 316 321 323 324 323 323 327 339 339 341 346 343 342 340 345 345 347 339 338 341 342 342 342 340 338 338 339 333 332 331 329 330 330 329 329 330 332 333 328 322 320 320 320 320 321 322 325 327
318 317 320 322 322 322 324 332 339 340 345 346 341 344 339 342 345 343 338 340 339 339 341 338 338 338 338 336 331 331 331 330 330 329 329 329 329 329 331 331 326 322 321 320 320 321 323 325 327
314 315 320 318 321 321 322 325 333 345 346 342 339 341 339 338 343 342 343 342 339 340 339 336 334 333 334 333 331 331 331 330 330 329 329 329 329 329 329 329 329 325 323 322 322 323 325 326 329
312 314 315 319 320 322 319 319 336 337 341 342 341 339 337 340 339 340 345 344 343 342 339 334 332 332 331 331 331 331 331 331 331 331 330 330 329 328 328 328 329 328 327 326 329 331 333 330 330
311 312 316 316 318 319 317 318 329 338 339 343 342 337 337 341 338 342 345 344 344 344 339 334 332 331 332 331 331 331 332 332 332 332 331 330 329 328 328 328 330 331 331 332 335 336 337 332 332
312 313 314 315 315 315 316 317 319 336 338 341 341 337 337 341 339 343 344 342 341 334 339 333 332 331 331 331 331 331 332 333 333 332 332 331 331 330 330 331 333 336 336 337 338 338 336 334 335
314 312 313 314 315 316 317 316 319 333 331 336 338 336 337 341 341 343 343 342 342 340 333 331 332 332 332 332 331 331 332 332 332 332 332 333 332 332 334 334 336 338 339 339 338 338 335 337 334
312 314 314 313 312 312 312 315 316 320 319 337 338 337 337 339 343 343 343 343 342 342 338 332 331 332 331 332 332 332 332 332 332 333 332 332 332 336 339 341 340 339 340 339 339 339 337 336 333
314 313 312 313 314 313 316 315 318 317 329 339 339 338 340 339 337 343 344 343 343 343 342 337 332 331 332 332 332 332 332 333 334 334 334 334 335 339 341 342 340 340 339 340 337 336 335 334 332
314 314 313 316 318 316 316 318 317 317 328 332 341 339 341 339 337 336 341 344 344 343 343 342 335 332 332 332 332 334 336 338 338 337 339 340 341 340 341 342 339 339 340 336 335 335 334 331 329
314 313 314 315 315 317 318 317 318 316 326 330 335 339 340 338 337 337 334 341 344 344 343 344 338 335 333 332 334 338 341 342 342 342 340 342 342 342 342 342 339 339 337 336 335 333 331 330 329
310 314 315 315 315 316 317 317 317 314 318 322 332 334 338 339 336 336 336 332 338 343 344 343 342 339 336 336 338 340 341 342 342 343 343 342 343 343 343 341 339 338 337 334 333 332 331 329 328
314 314 314 314 315 318 316 316 316 315 318 319 320 332 336 340 339 338 335 335 332 335 342 342 342 341 340 341 342 341 342 342 343 344 344 343 342 344 343 340 338 337 335 334 332 330 329 328 326
314 315 314 315 315 317 317 316 316 316 317 316 315 322 332 338 339 339 338 334 332 332 333 339 340 341 341 341 342 342 345 344 343 341 340 339 340 343 342 340 338 336 335 333 330 330 328 325 322
316 316 316 316 317 319 317 317 316 316 317 317 317 316 320 333 338 337 336 333 332 332 332 336 339 340 340 340 341 344 344 342 341 341 341 341 340 342 340 339 334 336 333 331 330 327 323 319 316
318 316 318 318 318 317 317 316 316 316 317 316 316 316 316 317 326 334 332 333 333 332 332 335 338 340 340 340 342 342 342 342 342 342 342 342 342 340 339 340 336 335 331 330 328 323 319 315 314
320 318 319 320 317 317 316 318 317 316 318 317 319 326 315 315 322 332 332 332 333 332 333 334 337 339 340 341 342 342 342 342 342 342 342 343 340 338 338 339 336 333 329 328 323 318 315 315 314
319 320 319 320 316 317 317 318 318 318 325 323 319 332 337 319 321 327 331 333 334 334 334 334 336 338 339 340 342 342 344 343 343 343 342 340 338 337 337 336 333 331 328 324 318 315 315 315 314
319 319 316 314 313 316 317 319 319 321 323 324 324 326 327 337 342 336 335 338 339 339 336 336 337 339 339 341 342 343 344 345 345 342 340 338 337 335 334 332 330 328 325 318 316 315 315 314 313
316 315 317 320 319 320 318 320 319 320 324 324 326 327 327 338 345 345 342 341 343 345 342 341 342 345 345 347 347 347 346 346 346 345 340 339 335 332 333 331 327 323 319 317 315 314 313 313 313
318 316 318 321 320 317 317 322 325 324 323 323 321 325 327 329 341 343 343 342 346 348 350 349 349 354 356 354 353 352 350 346 345 343 340 338 336 334 331 327 322 320 319 315 314 314 313 313 313
318 317 316 316 316 316 316 321 322 323 325 326 324 323 324 330 339 344 344 345 346 350 352 353 354 355 355 353 352 350 348 347 344 341 339 338 335 335 329 323 321 319 316 315 315 314 314 314 314
322 317 315 313 319 321 318 321 322 325 324 326 326 322 321 324 336 342 343 345 346 349 351 351 351 352 352 350 349 348 347 345 342 340 338 336 335 333 328 322 319 316 315 315 315 315 315 315 314
320 320 317 313 317 318 318 318 319 324 322 325 324 322 320 322 322 331 341 343 346 348 350 351 350 350 348 347 345 344 340 339 334 330 328 327 325 324 321 318 316 316 316 316 316 315 315 315 314
320 321 317 320 323 320 317 318 318 322 322 322 322 330 330 334 335 331 337 340 343 345 348 348 347 347 346 345 342 341 338 332 330 325 322 321 320 320 319 318 318 317 317 315 315 314 313 312 312
Wind_Speed
5 1 4 4 4 4 4 3 1 3 4 5 1 4 6 3 5 4 2 19 30 36 34 31 28 26 23 21 21 19 18 17 16 16 15 15 15 13 12 11 11 10 10 11 10 9 9 7 6
6 2 4 2 4 2 6 3 6 7 7 5 6 2 1 3 3 7 14 18 30 38 36 33 29 26 24 22 21 19 18 16 16 15 15 14 13 13 11 10 8 8 9 9 9 7 6 5 4
3 3 3 4 3 2 4 5 9 5 7 3 7 4 3 2 2 14 7 27 36 37 36 34 30 27 24 22 21 19 18 16 15 14 13 13 12 11 10 8 8 8 9 8 7 6 4 3 1
2 4 4 3 5 7 5 13 8 3 6 13 7 3 3 5 15 12 22 34 37 31 35 33 30 27 24 22 21 20 18 16 15 14 13 12 11 10 8 7 8 8 7 7 6 5 3 2 2
3 3 4 3 5 5 6 5 7 7 3 6 6 4 3 3 11 24 33 38 38 33 33 32 30 28 25 22 21 19 17 15 14 14 13 12 10 9 7 7 7 7 7 7 6 6 4 4 4
4 3 3 3 5 5 7 7 4 4 2 3 5 5 0 12 23 29 37 39 36 37 34 30 28 26 25 23 22 19 17 16 15 13 13 12 11 9 8 7 8 8 8 8 7 7 6 6 6
6 4 4 4 6 6 3 2 3 1 5 3 5 4 1 8 16 35 36 37 36 34 34 31 29 27 25 24 22 20 18 17 15 14 13 12 11 10 9 8 8 8 9 9 8 8 8 8 8
5 4 2 4 3 7 6 2 3 3 5 2 5 4 5 9 23 25 26 30 33 33 33 32 31 30 28 26 24 22 20 18 17 15 14 13 12 11 11 10 10 10 10 10 9 9 9 9 10
3 4 3 4 3 6 8 5 1 1 3 4 3 5 3 32 24 24 22 23 28 31 33 33 33 32 30 28 25 23 21 20 19 17 16 15 15 13 13 12 12 11 11 11 10 10 11 11 11
4 4 7 8 4 7 10 4 3 5 4 4 2 3 24 33 27 23 22 23 25 28 36 36 35 34 31 29 28 26 25 24 22 20 18 17 16 15 15 15 13 13 13 13 12 12 12 12 10
5 5 5 8 11 6 7 10 9 5 4 9 9 15 15 26 25 22 24 31 40 42 35 39 37 35 34 33 31 29 27 26 24 22 20 19 18 17 16 16 16 16 15 15 15 13 12 10 9
1 8 4 7 4 3 5 4 2 10 10 13 10 22 16 20 19 26 27 28 27 32 42 41 39 37 36 34 33 31 29 29 27 25 23 21 20 19 18 18 17 17 18 17 15 14 11 9 7
3 3 5 6 11 7 3 10 5 9 10 10 11 15 16 18 23 29 35 36 35 34 39 42 41 40 38 37 33 32 31 30 28 26 24 23 23 21 18 17 17 17 17 17 16 14 12 9 10
3 5 9 7 7 5 4 6 5 9 6 12 15 16 16 17 22 24 25 29 32 38 41 41 43 42 41 39 36 35 33 30 27 25 24 24 24 23 20 17 18 18 18 17 14 10 9 10 11
4 7 9 4 3 7 3 11 7 5 8 13 15 18 16 15 18 26 34 30 37 42 44 43 43 43 43 41 39 36 34 31 29 27 25 24 24 24 22 20 17 17 16 14 13 11 10 9 7
5 3 5 6 6 7 4 11 16 5 10 10 16 16 16 16 19 31 29 37 40 36 40 43 42 43 43 42 39 37 35 33 30 29 28 27 27 26 24 23 20 15 14 14 13 10 8 8 9
7 3 3 9 6 3 1 9 11 5 8 10 11 15 16 16 11 24 30 33 43 43 42 42 42 41 45 43 41 38 34 34 32 30 29 27 28 27 26 22 19 16 15 13 10 9 8 8 8
3 5 5 6 7 4 5 8 10 6 4 3 8 10 16 14 21 28 31 37 36 44 44 45 46 44 44 42 40 37 35 34 30 30 31 29 26 28 26 23 20 17 13 11 9 6 4 6 8
3 3 6 12 8 4 5 6 11 10 6 9 7 9 14 15 23 30 26 34 37 36 40 44 42 41 40 40 36 33 32 33 30 26 25 26 26 29 28 21 15 12 11 10 6 4 4 4 6
6 5 7 7 5 2 7 10 8 8 7 8 10 8 13 16 18 13 25 25 35 43 45 42 44 45 43 39 39 32 33 31 31 27 26 23 24 29 26 11 15 15 12 8 4 3 2 1 4
5 5 5 5 4 4 7 8 7 7 5 6 10 10 4 12 14 12 12 28 31 36 37 42 43 40 43 40 39 31 27 26 30 26 24 20 23 30 27 14 15 15 13 8 3 3 3 1 1
2 4 2 5 5 2 3 4 6 10 13 10 9 14 8 10 8 11 15 14 29 28 32 35 39 44 43 41 41 37 31 25 25 27 24 24 27 25 21 17 17 14 13 6 1 2 2 3 2
7 2 3 3 3 2 8 5 8 8 15 20 11 9 11 13 8 10 12 15 16 24 31 35 38 37 39 40 39 38 28 24 20 20 18 23 22 21 20 15 16 15 10 2 2 2 3 3 3
3 3 6 5 3 4 5 4 6 5 6 12 8 13 12 9 10 3 6 15 16 18 24 29 31 28 34 33 34 31 31 21 19 14 23 21 18 16 14 14 15 11 6 3 2 1 2 3 3
6 7 4 5 5 4 2 2 7 10 9 5 8 11 11 7 6 7 8 8 17 20 23 25 25 24 23 24 26 27 27 25 23 22 26 25 20 15 13 14 13 8 4 1 2 2 3 3 6
2 6 5 2 2 5 4 2 4 5 9 9 7 5 7 10 3 5 6 7 7 17 19 22 22 21 21 20 15 14 16 18 19 21 23 24 21 18 15 13 10 6 2 1 3 3 4 6 8
2 3 2 6 2 2 3 6 8 6 9 9 11 8 8 8 4 3 4 3 5 14 20 22 23 19 14 12 10 8 9 11 15 15 15 18 17 14 15 13 9 6 3 3 3 5 8 11 13
6 3 4 4 1 4 5 4 5 7 9 8 7 10 11 10 10 5 5 8 11 17 20 16 18 17 14 10 8 8 9 11 11 14 17 18 16 14 14 11 7 3 2 4 7 11 13 17 19
6 5 4 4 3 4 3 6 4 4 9 8 9 8 10 10 10 9 6 12 17 18 16 17 18 16 13 10 12 11 11 12 13 14 15 12 13 13 11 7 4 2 4 7 10 14 15 17 18
6 3 5 4 5 1 2 6 2 6 7 6 8 7 8 8 12 7 7 9 11 13 17 18 17 16 16 15 12 12 14 13 11 11 11 12 10 8 6 4 1 3 5 7 9 11 12 13 15
Wind_Direction
341 68 74 37 38 44 284 265 139 258 305 274 273 191 186 78 183 207 180 159 170 166 168 169 167 164 162 161 158 154 150 146 143 142 141 138 137 134 133 133 133 133 135 134 128 121 113 107 102
337 121 73 88 84 20 284 250 223 208 207 248 271 205 172 150 100 126 134 175 173 166 168 170 170 168 166 164 162 158 156 153 149 149 147 145 143 142 142 141 143 144 142 138 132 130 123 115 110
4 130 82 87 99 213 264 213 255 253 234 264 328 1 352 161 56 155 188 166 169 168 170 171 173 172 170 168 166 164 162 159 157 155 154 155 152 151 148 150 151 154 149 151 149 153 152 149 139
153 34 34 85 246 263 242 280 238 162 229 226 192 267 310 292 152 182 163 167 165 168 172 173 174 175 174 171 171 171 169 166 164 162 164 164 162 159 158 159 161 164 164 173 177 187 192 230 274
68 60 51 336 273 258 264 279 198 170 235 156 160 215 230 27 171 159 160 166 166 170 173 176 178 178 178 176 177 177 175 173 172 173 172 173 174 170 174 173 178 183 188 198 206 221 232 258 285
40 96 50 270 249 284 291 299 200 208 250 160 155 173 182 137 151 158 165 169 170 169 172 177 181 182 181 181 182 183 182 182 181 182 182 185 186 184 192 193 196 201 209 216 226 240 255 271 291
123 95 220 233 275 310 159 17 209 312 284 242 152 128 87 161 175 161 166 170 172 172 174 176 180 184 185 186 187 189 189 190 191 193 194 195 196 201 205 209 214 217 227 232 242 255 268 282 294
113 103 236 254 255 272 197 201 287 184 235 327 175 187 211 184 167 158 163 171 174 178 179 179 181 184 187 190 193 194 196 198 200 201 205 206 210 212 218 223 227 226 233 243 254 267 277 285 291
116 74 245 247 270 262 297 72 1 336 208 230 196 175 181 159 156 148 152 169 180 185 187 185 186 189 190 193 194 199 203 206 207 209 211 215 219 220 225 229 234 236 242 250 261 274 282 282 284
101 137 228 216 232 285 309 336 189 193 174 267 163 83 122 153 158 156 166 177 186 194 194 193 192 193 193 196 199 202 206 211 212 216 217 221 224 228 234 236 240 244 248 255 263 274 274 273 282
160 195 216 264 246 233 267 293 185 177 252 229 170 160 146 164 172 172 182 183 188 197 197 198 199 197 197 200 203 207 210 215 217 221 222 226 231 233 236 239 242 248 251 256 261 265 273 274 288
285 244 221 274 269 261 250 267 204 176 211 218 181 168 157 172 179 184 187 193 194 194 199 201 203 202 203 205 208 211 213 218 222 223 225 228 232 235 235 242 249 252 256 255 258 260 263 266 270
209 284 279 261 289 254 301 253 243 235 257 157 151 180 190 178 186 195 193 193 194 198 203 205 205 206 208 209 213 215 218 222 226 229 230 232 232 230 233 245 251 252 254 249 251 255 252 251 273
263 276 285 287 275 253 249 266 172 286 138 155 168 193 202 201 192 194 196 193 195 203 207 207 209 209 210 213 216 219 221 225 229 231 229 228 228 231 234 244 244 247 245 245 239 225 233 258 284
281 341 328 303 324 303 226 303 232 199 166 169 188 196 205 213 207 202 193 198 200 207 208 209 211 210 212 215 217 220 220 225 228 230 227 228 231 234 237 244 245 240 229 220 215 228 242 266 284
6 49 9 293 356 303 117 267 280 118 154 196 202 194 208 221 211 214 195 199 205 208 208 211 211 212 214 217 219 221 222 226 231 234 232 230 232 237 239 245 237 226 220 217 221 236 257 285 301
7 292 318 316 318 277 136 287 284 101 188 200 205 211 211 226 240 225 214 205 204 208 210 210 211 211 214 216 220 223 228 229 233 240 240 237 236 235 233 230 232 228 219 225 229 247 280 296 305
291 333 313 281 299 351 322 287 303 315 356 138 245 228 220 211 233 233 220 219 213 212 210 213 213 212 216 217 221 226 232 236 232 239 241 237 235 229 217 221 215 214 214 223 245 263 279 299 312
269 268 269 282 270 291 339 304 303 309 342 307 232 233 226 216 229 231 235 222 219 212 208 210 207 211 214 214 217 224 224 226 222 221 222 226 227 218 214 219 219 208 221 227 233 253 282 321 330
232 268 270 278 267 274 348 294 274 288 261 235 277 223 218 221 234 228 225 216 215 212 213 207 209 210 213 213 215 211 212 210 216 218 226 228 222 212 204 179 286 243 238 225 233 273 305 343 356
233 206 257 233 312 30 341 321 319 294 255 271 263 253 209 213 221 214 202 209 206 211 207 208 209 211 214 212 212 211 222 221 223 222 224 214 205 208 201 210 235 231 231 228 225 282 309 9 353
288 239 265 315 40 318 39 284 329 324 314 295 325 339 296 209 204 208 211 199 205 207 209 210 209 213 214 214 213 212 209 210 220 227 218 210 206 188 193 212 211 209 213 219 255 311 350 333 257
232 50 28 357 81 43 347 56 276 324 351 342 331 360 15 304 193 201 201 209 203 204 208 212 213 210 216 218 222 225 224 220 229 229 221 205 191 189 197 194 196 198 195 214 268 324 326 240 271
309 26 42 54 51 38 290 103 298 322 306 332 351 17 3 9 338 136 158 169 185 204 208 213 214 211 219 219 227 231 233 226 222 205 202 194 188 188 187 190 192 190 188 197 343 6 238 252 269
74 49 357 1 12 218 324 44 242 291 291 277 352 20 12 360 354 328 156 188 181 192 206 213 213 213 216 217 224 230 238 238 236 225 205 199 187 187 196 194 193 187 185 325 318 227 249 282 290
75 136 146 223 263 270 300 227 254 267 272 259 254 335 20 14 335 21 344 326 165 188 194 202 207 201 204 206 203 211 230 221 216 213 213 203 198 195 198 201 190 193 219 277 224 245 283 279 279
17 2 188 103 348 30 281 294 325 321 350 350 359 20 350 7 352 47 343 24 176 184 193 196 196 180 177 189 203 202 213 221 211 205 210 211 192 201 196 191 190 197 227 223 246 278 281 277 279
88 168 21 10 1 295 289 286 235 313 322 324 354 352 358 351 339 275 185 215 208 215 211 201 195 177 178 191 215 220 208 192 189 185 177 183 197 195 188 186 189 211 239 262 270 272 280 279 281
6 13 36 115 118 187 293 274 267 307 299 306 339 344 341 337 319 308 254 230 228 221 213 193 182 178 180 177 168 171 160 156 157 152 156 157 153 153 163 176 192 225 285 297 293 292 291 287 287
67 80 103 102 300 326 175 276 258 357 328 330 320 10 341 335 353 334 300 284 228 212 203 192 178 178 176 172 164 162 160 154 154 146 144 139 138 143 148 154 195 301 307 302 301 299 298 295 290